[Date Prev][Date Next][Thread Prev][Thread Next] - [Date Index][Thread Index][Author Index]
2 Line ISS Keps 12-2
- Subject: [sarex] 2 Line ISS Keps 12-2
- From: "Dave Larsen PhD" <doc@xxxxxxxxxxx>
- Date: Tue, 2 Dec 2003 02:54:44 -0800
ISS
1 25544U 98067A 03336.25159566 .00035176 00000-0 35325-3 0 8435
2 25544 51.6300 252.3600 0006079 197.4943 299.7413 15.65112159287271
----
Via the sarex mailing list at AMSAT.ORG courtesy of AMSAT-NA.
To unsubscribe, send "unsubscribe sarex" to Majordomo@amsat.org
AMSAT Home